Location: Bishausen
(51.6334°N, 9.9631°E)
Time: 15:45:56
(UTC+00:00)

Cosmos 2181 Rocket - Pass Details

Date: 23 May 2024
Orbit: 951 x 1015 km, 82.9° (Epoch: 23 June)

Event Time Altitude Azimuth Distance (km) Brightness Sun altitude
Rises 01:47:47 0° 349° (N) 3,749 7.8 -10.5°
Reaches altitude 10° 01:50:20 10° 349° (N) 2,788 7.0 -10.3°
Maximum altitude 01:56:46 85° 263° (W) 1,004 4.1 -9.7°
Drops below altitude 10° 02:03:02 10° 175° (S) 2,726 5.9 -9.1°
Sets 02:05:31 0° 175° (S) 3,660 6.6 -8.9°
